NOAA 20 (43013 NORAD) Tracking and Keplerian Element Data

This shows tracking and keplerian element data for the satellite.

Feedback or suggestion? Click here.




ElementValue
Catalog43013
NameNOAA 20
Epoch Orbit6944
Epoch Day81.84463041
Epoch Year2019
RAAN21.3705
Inclination98.7137
Eccentricity0.0001139
Argument of Perigee106.7217
Mean Anonmoly253.4084
Mean Motion14.19550631
Decay Rate-1.1E-07
L11 43013U 17073A 19081.84463041 -.00000011 00000-0 15495-4 0 9999
L22 43013 98.7137 21.3705 0001139 106.7217 253.4084 14.19550631 69448

Live tracking and technical data element details for NOAA 20 (NORAD 43013). NOAA 20 can be tracked NOW for your location showing map with azimuth and elevation plus other details from your city location.

Track the satellite on the map from your city or location and see movement details for azimuth, elevation, latitude, longitude, range, height, and movement on the map or in text.







IsCatalogInMostPopularTable: catalog: 43013, numindb: 283
Update: records affected: 1



GetName: 43013 NOAA 20

Hit Count: updated at: Sun, 24 Mar 2019 08:37:58 GMT